PIMOHWEATHER Station Historical Data
Daily Summary for February 20, 2020 Units:  Metric    English   Both
Daily Weekly Monthly Yearly
  High: Low: Average:
Temperature: 31.0 °C 23.0 °C 26.4 °C
Dew Point: 21.0 °C 19.0 °C 19.9 °C
Humidity: 81% 54% 68%
Wind Speed: 34km/h 0km/h 13.4km/h
Wind Gust: 40km/h - -
Wind- - East
Pressure: 1019.0 hPa 1015.2 hPa -
Precipitation: 0.00 mm    
 
 
Tabular Data for February 20, 2020
Time Temperature Dew Point Pressure Wind Wind Speed Wind Gust Humidity Rainfall Rate (Hourly) solar
00:04 25.0 °C 20.0 °C 1017.3 hPa WNW 3 km/h 4 km/h 74% 0.00 mm 0.00 W/m2
00:09 25.0 °C 20.0 °C 1017.3 hPa NW 5 km/h 12 km/h 74% 0.00 mm 0.00 W/m2
00:14 25.0 °C 20.0 °C 1017.3 hPa NW 5 km/h 12 km/h 74% 0.00 mm 0.00 W/m2
00:19 25.0 °C 20.0 °C 1017.3 hPa WNW 2 km/h 4 km/h 75% 0.00 mm 0.00 W/m2
00:24 25.0 °C 20.0 °C 1016.9 hPa Calm     75% 0.00 mm 0.00 W/m2
00:29 25.0 °C 20.0 °C 1016.6 hPa Calm     75% 0.00 mm 0.00 W/m2
00:34 25.0 °C 20.0 °C 1016.6 hPa WNW 4 km/h 4 km/h 75% 0.00 mm 0.00 W/m2
00:39 25.0 °C 20.0 °C 1016.6 hPa NW 2 km/h 4 km/h 75% 0.00 mm 0.00 W/m2
00:44 24.0 °C 20.0 °C 1016.6 hPa NW 5 km/h 8 km/h 75% 0.00 mm 0.00 W/m2
00:49 24.0 °C 20.0 °C 1016.6 hPa NW 6 km/h 8 km/h 75% 0.00 mm 0.00 W/m2
00:54 24.0 °C 20.0 °C 1016.6 hPa NW 4 km/h 4 km/h 76% 0.00 mm 0.00 W/m2
00:59 24.0 °C 20.0 °C 1016.6 hPa NW 3 km/h 4 km/h 76% 0.00 mm 0.00 W/m2
01:04 24.0 °C 20.0 °C 1016.6 hPa NW 5 km/h 8 km/h 76% 0.00 mm 0.00 W/m2
01:09 24.0 °C 20.0 °C 1016.6 hPa NW 7 km/h 8 km/h 76% 0.00 mm 0.00 W/m2
01:14 24.0 °C 20.0 °C 1016.6 hPa NW 5 km/h 8 km/h 77% 0.00 mm 0.00 W/m2
01:19 24.0 °C 20.0 °C 1016.6 hPa Calm   4 km/h 77% 0.00 mm 0.00 W/m2
01:24 24.0 °C 20.0 °C 1016.6 hPa NW 6 km/h 8 km/h 77% 0.00 mm 0.00 W/m2
01:29 24.0 °C 20.0 °C 1016.6 hPa NW 5 km/h 8 km/h 77% 0.00 mm 0.00 W/m2
01:34 24.0 °C 20.0 °C 1015.9 hPa NW 5 km/h 8 km/h 77% 0.00 mm 0.00 W/m2
01:39 24.0 °C 20.0 °C 1015.9 hPa NW 6 km/h 8 km/h 77% 0.00 mm 0.00 W/m2
01:44 24.0 °C 20.0 °C 1015.9 hPa NNW 5 km/h 8 km/h 77% 0.00 mm 0.00 W/m2
01:49 24.0 °C 20.0 °C 1015.9 hPa NW 6 km/h 8 km/h 77% 0.00 mm 0.00 W/m2
01:54 24.0 °C 20.0 °C 1015.9 hPa NW 5 km/h 8 km/h 77% 0.00 mm 0.00 W/m2
01:59 24.0 °C 20.0 °C 1015.9 hPa NW 2 km/h 8 km/h 77% 0.00 mm 0.00 W/m2
02:04 24.0 °C 20.0 °C 1015.9 hPa NW 6 km/h 8 km/h 77% 0.00 mm 0.00 W/m2
02:09 24.0 °C 20.0 °C 1015.9 hPa NW 6 km/h 8 km/h 77% 0.00 mm 0.00 W/m2
02:14 24.0 °C 20.0 °C 1015.9 hPa NNW 5 km/h 8 km/h 77% 0.00 mm 0.00 W/m2
02:19 24.0 °C 20.0 °C 1015.9 hPa NNW 4 km/h 8 km/h 77% 0.00 mm 0.00 W/m2
02:24 24.0 °C 20.0 °C 1015.9 hPa NNW 6 km/h 12 km/h 77% 0.00 mm 0.00 W/m2
02:29 24.0 °C 20.0 °C 1015.9 hPa NNW 5 km/h 8 km/h 77% 0.00 mm 0.00 W/m2
02:34 24.0 °C 20.0 °C 1015.9 hPa NNW 7 km/h 8 km/h 77% 0.00 mm 0.00 W/m2
02:39 24.0 °C 20.0 °C 1015.9 hPa NNW 5 km/h 8 km/h 77% 0.00 mm 0.00 W/m2
02:44 24.0 °C 20.0 °C 1015.9 hPa NNW 5 km/h 8 km/h 77% 0.00 mm 0.00 W/m2
02:49 24.0 °C 20.0 °C 1015.9 hPa North 3 km/h 4 km/h 77% 0.00 mm 0.00 W/m2
02:54 24.0 °C 20.0 °C 1015.9 hPa North 4 km/h 4 km/h 78% 0.00 mm 0.00 W/m2
02:59 24.0 °C 20.0 °C 1015.9 hPa NW 5 km/h 8 km/h 78% 0.00 mm 0.00 W/m2
03:04 24.0 °C 20.0 °C 1015.9 hPa NW 4 km/h 8 km/h 78% 0.00 mm 0.00 W/m2
03:09 24.0 °C 20.0 °C 1015.9 hPa NNE 6 km/h 8 km/h 78% 0.00 mm 0.00 W/m2
03:14 24.0 °C 20.0 °C 1015.9 hPa North 5 km/h 8 km/h 78% 0.00 mm 0.00 W/m2
03:19 24.0 °C 20.0 °C 1015.9 hPa North 3 km/h 4 km/h 78% 0.00 mm 0.00 W/m2
03:24 24.0 °C 20.0 °C 1015.9 hPa Calm     78% 0.00 mm 0.00 W/m2
03:29 24.0 °C 20.0 °C 1015.9 hPa Calm     78% 0.00 mm 0.00 W/m2
03:34 24.0 °C 20.0 °C 1015.9 hPa Calm     78% 0.00 mm 0.00 W/m2
03:39 24.0 °C 20.0 °C 1015.9 hPa NNE 4 km/h 4 km/h 78% 0.00 mm 0.00 W/m2
03:44 24.0 °C 20.0 °C 1015.9 hPa North 4 km/h 4 km/h 78% 0.00 mm 0.00 W/m2
03:49 24.0 °C 20.0 °C 1015.9 hPa North 2 km/h 4 km/h 78% 0.00 mm 0.00 W/m2
03:54 24.0 °C 20.0 °C 1015.9 hPa North 4 km/h 4 km/h 78% 0.00 mm 0.00 W/m2
03:59 24.0 °C 20.0 °C 1015.9 hPa NNW 4 km/h 4 km/h 78% 0.00 mm 0.00 W/m2
04:04 24.0 °C 20.0 °C 1015.9 hPa North 5 km/h 8 km/h 78% 0.00 mm 0.00 W/m2
04:09 24.0 °C 20.0 °C 1015.9 hPa North 5 km/h 8 km/h 78% 0.00 mm 0.00 W/m2
04:14 24.0 °C 20.0 °C 1015.9 hPa North 4 km/h 8 km/h 79% 0.00 mm 0.00 W/m2
04:19 24.0 °C 20.0 °C 1015.9 hPa North 5 km/h 8 km/h 79% 0.00 mm 0.00 W/m2
04:24 24.0 °C 20.0 °C 1015.9 hPa North 4 km/h 8 km/h 79% 0.00 mm 0.00 W/m2
04:29 24.0 °C 20.0 °C 1015.9 hPa WNW 1 km/h 4 km/h 79% 0.00 mm 0.00 W/m2
04:34 24.0 °C 20.0 °C 1015.9 hPa NW 4 km/h 8 km/h 79% 0.00 mm 0.00 W/m2
04:39 24.0 °C 20.0 °C 1015.9 hPa Calm   4 km/h 80% 0.00 mm 0.00 W/m2
04:44 23.0 °C 20.0 °C 1015.9 hPa Calm     80% 0.00 mm 0.00 W/m2
04:49 23.0 °C 20.0 °C 1015.9 hPa Calm     80% 0.00 mm 0.00 W/m2
04:54 23.0 °C 20.0 °C 1015.9 hPa Calm     80% 0.00 mm 0.00 W/m2
04:59 23.0 °C 20.0 °C 1015.9 hPa NW 3 km/h 4 km/h 80% 0.00 mm 0.00 W/m2
05:04 23.0 °C 20.0 °C 1015.9 hPa NW 5 km/h 12 km/h 80% 0.00 mm 0.00 W/m2
05:09 23.0 °C 20.0 °C 1015.9 hPa NW 5 km/h 8 km/h 80% 0.00 mm 0.00 W/m2
05:14 23.0 °C 20.0 °C 1015.9 hPa NW 5 km/h 8 km/h 80% 0.00 mm 0.00 W/m2
05:19 23.0 °C 20.0 °C 1015.9 hPa NNW 4 km/h 8 km/h 80% 0.00 mm 0.00 W/m2
05:24 23.0 °C 20.0 °C 1015.9 hPa NNW 4 km/h 8 km/h 80% 0.00 mm 0.00 W/m2
05:29 23.0 °C 20.0 °C 1015.9 hPa NW 8 km/h 8 km/h 80% 0.00 mm 0.00 W/m2
05:34 23.0 °C 20.0 °C 1015.9 hPa NNW 6 km/h 8 km/h 80% 0.00 mm 0.00 W/m2
05:39 23.0 °C 20.0 °C 1015.9 hPa NNW 6 km/h 8 km/h 80% 0.00 mm 0.00 W/m2
05:44 23.0 °C 20.0 °C 1016.3 hPa North 11 km/h 12 km/h 80% 0.00 mm 0.00 W/m2
05:49 23.0 °C 20.0 °C 1016.6 hPa NNW 7 km/h 12 km/h 81% 0.00 mm 0.00 W/m2
05:54 23.0 °C 20.0 °C 1016.6 hPa NNE 10 km/h 12 km/h 81% 0.00 mm 0.00 W/m2
05:59 23.0 °C 20.0 °C 1016.6 hPa North 5 km/h 12 km/h 81% 0.00 mm 0.00 W/m2
06:04 23.0 °C 20.0 °C 1016.6 hPa North 6 km/h 8 km/h 81% 0.00 mm 0.00 W/m2
06:09 23.0 °C 20.0 °C 1016.9 hPa North 10 km/h 12 km/h 81% 0.00 mm 0.00 W/m2
06:14 23.0 °C 20.0 °C 1016.6 hPa NNE 10 km/h 16 km/h 81% 0.00 mm 0.00 W/m2
06:19 23.0 °C 20.0 °C 1016.9 hPa North 9 km/h 16 km/h 81% 0.00 mm 0.88 W/m2
06:24 23.0 °C 20.0 °C 1016.9 hPa NNE 4 km/h 8 km/h 81% 0.00 mm 2.48 W/m2
06:29 23.0 °C 19.0 °C 1016.9 hPa NNE 5 km/h 8 km/h 80% 0.00 mm 4.29 W/m2
06:34 23.0 °C 19.0 °C 1017.3 hPa North 3 km/h 4 km/h 80% 0.00 mm 8.18 W/m2
06:39 23.0 °C 19.0 °C 1017.3 hPa North 8 km/h 12 km/h 80% 0.00 mm 13.86 W/m2
06:44 23.0 °C 19.0 °C 1017.3 hPa North 9 km/h 12 km/h 80% 0.00 mm 20.63 W/m2
06:49 23.0 °C 20.0 °C 1017.3 hPa North 9 km/h 12 km/h 80% 0.00 mm 23.85 W/m2
06:54 23.0 °C 20.0 °C 1017.3 hPa NNE 9 km/h 12 km/h 80% 0.00 mm 30.18 W/m2
06:59 23.0 °C 20.0 °C 1017.6 hPa NNE 7 km/h 12 km/h 79% 0.00 mm 34.21 W/m2
07:04 23.0 °C 20.0 °C 1017.6 hPa NNE 9 km/h 12 km/h 79% 0.00 mm 38.56 W/m2
07:09 24.0 °C 20.0 °C 1017.6 hPa North 12 km/h 16 km/h 78% 0.00 mm 43.09 W/m2
07:14 24.0 °C 20.0 °C 1018.0 hPa North 10 km/h 12 km/h 78% 0.00 mm 46.45 W/m2
07:19 24.0 °C 20.0 °C 1018.0 hPa North 5 km/h 8 km/h 77% 0.00 mm 51.41 W/m2
07:24 24.0 °C 20.0 °C 1017.6 hPa North 7 km/h 12 km/h 77% 0.00 mm 59.09 W/m2
07:29 25.0 °C 20.0 °C 1017.6 hPa NNE 8 km/h 12 km/h 75% 0.00 mm 67.97 W/m2
07:34 25.0 °C 20.0 °C 1018.3 hPa NNE 12 km/h 16 km/h 75% 0.00 mm 76.15 W/m2
07:39 25.0 °C 20.0 °C 1018.0 hPa North 7 km/h 12 km/h 75% 0.00 mm 85.36 W/m2
07:44 25.0 °C 20.0 °C 1018.3 hPa North 8 km/h 12 km/h 74% 0.00 mm 93.68 W/m2
07:49 26.0 °C 20.0 °C 1018.3 hPa NNE 6 km/h 8 km/h 73% 0.00 mm 101.14 W/m2
07:54 26.0 °C 20.0 °C 1018.3 hPa NE 6 km/h 16 km/h 72% 0.00 mm 112.59 W/m2
07:59 26.0 °C 20.0 °C 1018.3 hPa NNE 10 km/h 16 km/h 70% 0.00 mm 120.33 W/m2
08:04 26.0 °C 20.0 °C 1018.3 hPa NE 9 km/h 12 km/h 69% 0.00 mm 129.16 W/m2
08:09 27.0 °C 20.0 °C 1018.0 hPa East 5 km/h 12 km/h 68% 0.00 mm 141.59 W/m2
08:14 26.0 °C 20.0 °C 1018.0 hPa NNE 10 km/h 24 km/h 67% 0.00 mm 151.16 W/m2
08:19 27.0 °C 20.0 °C 1018.0 hPa NNE 13 km/h 16 km/h 66% 0.00 mm 162.68 W/m2
08:24 27.0 °C 20.0 °C 1018.0 hPa NNE 12 km/h 20 km/h 67% 0.00 mm 176.23 W/m2
08:29 27.0 °C 20.0 °C 1018.0 hPa NE 15 km/h 20 km/h 66% 0.00 mm 190.50 W/m2
08:34 28.0 °C 20.0 °C 1018.3 hPa NE 6 km/h 12 km/h 65% 0.00 mm 201.58 W/m2
08:39 28.0 °C 20.0 °C 1018.3 hPa NE 15 km/h 20 km/h 64% 0.00 mm 216.73 W/m2
08:44 28.0 °C 20.0 °C 1018.6 hPa NE 11 km/h 16 km/h 63% 0.00 mm 218.67 W/m2
08:49 28.0 °C 20.0 °C 1018.3 hPa ESE 9 km/h 12 km/h 62% 0.00 mm 235.59 W/m2
08:54 29.0 °C 20.0 °C 1018.3 hPa ENE 11 km/h 12 km/h 61% 0.00 mm 244.64 W/m2
08:59 28.0 °C 20.0 °C 1018.3 hPa NNE 7 km/h 16 km/h 60% 0.00 mm 252.53 W/m2
09:04 28.0 °C 20.0 °C 1018.6 hPa NNE 18 km/h 32 km/h 63% 0.00 mm 254.68 W/m2
09:09 28.0 °C 20.0 °C 1018.6 hPa NNE 16 km/h 32 km/h 63% 0.00 mm 269.80 W/m2
09:14 28.0 °C 20.0 °C 1018.6 hPa NE 22 km/h 32 km/h 62% 0.00 mm 282.96 W/m2
09:19 29.0 °C 20.0 °C 1018.6 hPa ESE 10 km/h 12 km/h 61% 0.00 mm 297.35 W/m2
09:24 29.0 °C 20.0 °C 1018.6 hPa NE 19 km/h 24 km/h 61% 0.00 mm 309.48 W/m2
09:29 29.0 °C 20.0 °C 1018.6 hPa NNE 23 km/h 24 km/h 61% 0.00 mm 331.28 W/m2
09:34 29.0 °C 20.0 °C 1018.6 hPa NNE 17 km/h 20 km/h 61% 0.00 mm 337.50 W/m2
09:39 30.0 °C 21.0 °C 1019.0 hPa NNE 18 km/h 24 km/h 59% 0.00 mm 337.91 W/m2
09:44 29.0 °C 20.0 °C 1019.0 hPa NNE 21 km/h 24 km/h 60% 0.00 mm 342.51 W/m2
09:49 29.0 °C 21.0 °C 1018.6 hPa North 23 km/h 32 km/h 62% 0.00 mm 337.05 W/m2
09:54 29.0 °C 21.0 °C 1018.6 hPa NNE 16 km/h 28 km/h 63% 0.00 mm 339.21 W/m2
09:59 29.0 °C 21.0 °C 1019.0 hPa NNE 25 km/h 32 km/h 62% 0.00 mm 341.61 W/m2
10:04 29.0 °C 20.0 °C 1018.6 hPa NNE 32 km/h 36 km/h 62% 0.00 mm 344.32 W/m2
10:09 29.0 °C 20.0 °C 1018.6 hPa NNE 21 km/h 28 km/h 61% 0.00 mm 351.17 W/m2
10:14 29.0 °C 20.0 °C 1018.6 hPa NNE 23 km/h 32 km/h 61% 0.00 mm 359.20 W/m2
10:19 29.0 °C 20.0 °C 1018.6 hPa NNE 21 km/h 28 km/h 61% 0.00 mm 363.29 W/m2
10:24 29.0 °C 20.0 °C 1018.6 hPa NNE 24 km/h 28 km/h 60% 0.00 mm 368.01 W/m2
10:29 29.0 °C 20.0 °C 1018.6 hPa NNE 17 km/h 20 km/h 59% 0.00 mm 378.06 W/m2
10:34 29.0 °C 20.0 °C 1018.6 hPa NE 26 km/h 28 km/h 59% 0.00 mm 382.69 W/m2
10:39 29.0 °C 20.0 °C 1018.6 hPa NNE 19 km/h 28 km/h 59% 0.00 mm 379.11 W/m2
10:44 29.0 °C 20.0 °C 1018.6 hPa NE 21 km/h 28 km/h 59% 0.00 mm 382.76 W/m2
10:49 29.0 °C 20.0 °C 1018.6 hPa NNE 34 km/h 36 km/h 59% 0.00 mm 384.71 W/m2
10:54 29.0 °C 20.0 °C 1018.3 hPa North 29 km/h 32 km/h 59% 0.00 mm 388.39 W/m2
10:59 29.0 °C 20.0 °C 1018.3 hPa NNE 21 km/h 28 km/h 59% 0.00 mm 385.06 W/m2
11:04 29.0 °C 20.0 °C 1018.3 hPa North 24 km/h 32 km/h 59% 0.00 mm 385.92 W/m2
11:09 29.0 °C 20.0 °C 1018.3 hPa NNE 24 km/h 28 km/h 60% 0.00 mm 388.78 W/m2
11:14 29.0 °C 20.0 °C 1018.3 hPa North 28 km/h 32 km/h 59% 0.00 mm 390.43 W/m2
11:19 29.0 °C 20.0 °C 1018.3 hPa NNE 21 km/h 32 km/h 60% 0.00 mm 391.69 W/m2
11:24 29.0 °C 20.0 °C 1018.0 hPa NNE 31 km/h 36 km/h 60% 0.00 mm 394.26 W/m2
11:29 29.0 °C 20.0 °C 1018.0 hPa NNE 20 km/h 28 km/h 58% 0.00 mm 399.73 W/m2
11:34 29.0 °C 20.0 °C 1018.0 hPa NNE 13 km/h 28 km/h 58% 0.00 mm 403.33 W/m2
11:39 29.0 °C 20.0 °C 1018.0 hPa North 31 km/h 36 km/h 57% 0.00 mm 402.90 W/m2
11:44 29.0 °C 20.0 °C 1018.0 hPa NNE 32 km/h 40 km/h 57% 0.00 mm 401.97 W/m2
11:49 29.0 °C 20.0 °C 1018.0 hPa North 25 km/h 40 km/h 58% 0.00 mm 412.59 W/m2
11:54 29.0 °C 20.0 °C 1018.0 hPa NNE 18 km/h 24 km/h 57% 0.00 mm 415.01 W/m2
11:59 30.0 °C 20.0 °C 1018.0 hPa NNE 26 km/h 28 km/h 57% 0.00 mm 416.26 W/m2
12:04 30.0 °C 20.0 °C 1018.0 hPa NE 23 km/h 28 km/h 56% 0.00 mm 413.79 W/m2
12:09 29.0 °C 20.0 °C 1018.0 hPa NNE 33 km/h 40 km/h 57% 0.00 mm 413.59 W/m2
12:14 29.0 °C 20.0 °C 1018.0 hPa North 26 km/h 32 km/h 57% 0.00 mm 411.52 W/m2
12:19 29.0 °C 20.0 °C 1017.6 hPa North 22 km/h 36 km/h 57% 0.00 mm 414.86 W/m2
12:24 29.0 °C 20.0 °C 1017.6 hPa NNE 21 km/h 32 km/h 58% 0.00 mm 414.29 W/m2
12:29 29.0 °C 20.0 °C 1017.3 hPa NNE 27 km/h 36 km/h 57% 0.00 mm 417.77 W/m2
12:34 29.0 °C 20.0 °C 1017.6 hPa NNE 21 km/h 36 km/h 57% 0.00 mm 418.65 W/m2
12:39 30.0 °C 20.0 °C 1017.3 hPa NE 13 km/h 24 km/h 56% 0.00 mm 430.01 W/m2
12:44 30.0 °C 20.0 °C 1017.3 hPa NNE 31 km/h 36 km/h 57% 0.00 mm 431.84 W/m2
12:49 29.0 °C 20.0 °C 1017.3 hPa NNE 27 km/h 36 km/h 57% 0.00 mm 428.22 W/m2
12:54 29.0 °C 20.0 °C 1016.9 hPa North 29 km/h 36 km/h 57% 0.00 mm 421.47 W/m2
12:59 29.0 °C 20.0 °C 1016.9 hPa NNE 32 km/h 40 km/h 57% 0.00 mm 422.64 W/m2
13:04 29.0 °C 20.0 °C 1016.9 hPa North 23 km/h 32 km/h 57% 0.00 mm 424.99 W/m2
13:09 29.0 °C 20.0 °C 1016.9 hPa NNE 16 km/h 28 km/h 57% 0.00 mm 427.39 W/m2
13:14 29.0 °C 20.0 °C 1016.9 hPa NNE 25 km/h 40 km/h 57% 0.00 mm 429.59 W/m2
13:19 29.0 °C 20.0 °C 1016.9 hPa North 33 km/h 40 km/h 58% 0.00 mm 423.01 W/m2
13:24 29.0 °C 20.0 °C 1016.9 hPa NNE 28 km/h 40 km/h 58% 0.00 mm 418.02 W/m2
13:29 29.0 °C 20.0 °C 1016.9 hPa NE 16 km/h 24 km/h 57% 0.00 mm 427.05 W/m2
13:34 30.0 °C 20.0 °C 1016.9 hPa NNE 24 km/h 32 km/h 57% 0.00 mm 426.97 W/m2
13:39 29.0 °C 20.0 °C 1016.6 hPa NNE 23 km/h 32 km/h 57% 0.00 mm 422.54 W/m2
13:44 30.0 °C 20.0 °C 1016.6 hPa NE 17 km/h 28 km/h 56% 0.00 mm 431.96 W/m2
13:49 29.0 °C 20.0 °C 1016.6 hPa NNE 23 km/h 28 km/h 56% 0.00 mm 429.68 W/m2
13:54 29.0 °C 20.0 °C 1016.6 hPa NNE 26 km/h 32 km/h 56% 0.00 mm 425.97 W/m2
13:59 29.0 °C 19.0 °C 1016.6 hPa NNE 23 km/h 32 km/h 56% 0.00 mm 424.77 W/m2
14:04 29.0 °C 20.0 °C 1016.6 hPa NNE 15 km/h 28 km/h 57% 0.00 mm 424.28 W/m2
14:09 29.0 °C 20.0 °C 1016.3 hPa NNE 25 km/h 32 km/h 57% 0.00 mm 423.78 W/m2
14:14 30.0 °C 20.0 °C 1016.3 hPa NE 23 km/h 28 km/h 57% 0.00 mm 426.41 W/m2
14:19 30.0 °C 20.0 °C 1016.3 hPa NNE 8 km/h 20 km/h 54% 0.00 mm 426.18 W/m2
14:24 30.0 °C 20.0 °C 1015.9 hPa NE 15 km/h 20 km/h 54% 0.00 mm 428.07 W/m2
14:29 31.0 °C 20.0 °C 1015.9 hPa NE 16 km/h 20 km/h 55% 0.00 mm 427.62 W/m2
14:34 30.0 °C 20.0 °C 1015.9 hPa NNE 31 km/h 40 km/h 56% 0.00 mm 423.43 W/m2
14:39 30.0 °C 20.0 °C 1015.9 hPa NE 14 km/h 20 km/h 56% 0.00 mm 418.32 W/m2
14:44 30.0 °C 20.0 °C 1015.9 hPa NNE 22 km/h 28 km/h 56% 0.00 mm 409.57 W/m2
14:49 30.0 °C 20.0 °C 1015.9 hPa NNE 25 km/h 32 km/h 57% 0.00 mm 405.74 W/m2
14:54 30.0 °C 20.0 °C 1015.9 hPa NNE 24 km/h 40 km/h 57% 0.00 mm 401.88 W/m2
14:59 30.0 °C 20.0 °C 1015.9 hPa NNE 23 km/h 28 km/h 57% 0.00 mm 397.34 W/m2
15:04 30.0 °C 20.0 °C 1015.9 hPa NNE 15 km/h 28 km/h 56% 0.00 mm 402.48 W/m2
15:09 29.0 °C 20.0 °C 1015.9 hPa NE 21 km/h 28 km/h 56% 0.00 mm 399.35 W/m2
15:14 29.0 °C 20.0 °C 1015.9 hPa NNE 27 km/h 32 km/h 57% 0.00 mm 390.97 W/m2
15:19 29.0 °C 20.0 °C 1015.9 hPa NNE 25 km/h 32 km/h 58% 0.00 mm 383.98 W/m2
15:24 29.0 °C 20.0 °C 1015.9 hPa NNE 33 km/h 40 km/h 58% 0.00 mm 382.59 W/m2
15:29 29.0 °C 20.0 °C 1015.9 hPa North 26 km/h 32 km/h 58% 0.00 mm 374.96 W/m2
15:34 29.0 °C 20.0 °C 1015.9 hPa NE 23 km/h 32 km/h 58% 0.00 mm 369.87 W/m2
15:39 29.0 °C 20.0 °C 1015.9 hPa NNE 17 km/h 28 km/h 59% 0.00 mm 362.83 W/m2
15:44 29.0 °C 20.0 °C 1015.9 hPa NNE 23 km/h 32 km/h 59% 0.00 mm 353.97 W/m2
15:49 29.0 °C 20.0 °C 1015.9 hPa NNE 18 km/h 24 km/h 59% 0.00 mm 344.03 W/m2
15:54 29.0 °C 20.0 °C 1015.9 hPa NNE 21 km/h 24 km/h 59% 0.00 mm 341.69 W/m2
15:59 29.0 °C 20.0 °C 1015.9 hPa NE 20 km/h 32 km/h 59% 0.00 mm 334.66 W/m2
16:04 29.0 °C 20.0 °C 1015.9 hPa NE 20 km/h 24 km/h 59% 0.00 mm 326.07 W/m2
16:09 29.0 °C 20.0 °C 1015.9 hPa North 24 km/h 28 km/h 59% 0.00 mm 320.22 W/m2
16:14 29.0 °C 20.0 °C 1015.9 hPa NNE 19 km/h 24 km/h 59% 0.00 mm 317.24 W/m2
16:19 29.0 °C 20.0 °C 1015.9 hPa NNE 24 km/h 28 km/h 59% 0.00 mm 310.93 W/m2
16:24 28.0 °C 20.0 °C 1015.9 hPa NNE 25 km/h 32 km/h 60% 0.00 mm 305.00 W/m2
16:29 28.0 °C 20.0 °C 1015.9 hPa NNE 16 km/h 32 km/h 59% 0.00 mm 299.60 W/m2
16:34 28.0 °C 20.0 °C 1015.9 hPa NNE 21 km/h 28 km/h 59% 0.00 mm 289.04 W/m2
16:39 29.0 °C 20.0 °C 1015.9 hPa NNE 25 km/h 32 km/h 59% 0.00 mm 279.36 W/m2
16:44 28.0 °C 20.0 °C 1015.9 hPa NNE 22 km/h 32 km/h 59% 0.00 mm 270.91 W/m2
16:49 28.0 °C 20.0 °C 1015.9 hPa NNE 26 km/h 28 km/h 60% 0.00 mm 259.88 W/m2
16:54 28.0 °C 20.0 °C 1015.9 hPa NNE 19 km/h 28 km/h 60% 0.00 mm 240.55 W/m2
16:59 28.0 °C 19.0 °C 1015.9 hPa NNE 14 km/h 20 km/h 59% 0.00 mm 229.98 W/m2
17:04 28.0 °C 20.0 °C 1015.9 hPa NE 15 km/h 20 km/h 59% 0.00 mm 217.57 W/m2
17:09 28.0 °C 19.0 °C 1015.9 hPa NNE 23 km/h 28 km/h 60% 0.00 mm 55.06 W/m2
17:14 28.0 °C 19.0 °C 1015.9 hPa NNE 13 km/h 20 km/h 60% 0.00 mm 50.27 W/m2
17:19 28.0 °C 19.0 °C 1016.3 hPa NNE 22 km/h 28 km/h 61% 0.00 mm 46.22 W/m2
17:24 28.0 °C 20.0 °C 1016.3 hPa NNE 17 km/h 28 km/h 61% 0.00 mm 42.02 W/m2
17:29 28.0 °C 20.0 °C 1016.3 hPa NNE 18 km/h 28 km/h 62% 0.00 mm 37.89 W/m2
17:34 27.0 °C 19.0 °C 1016.3 hPa NNE 14 km/h 20 km/h 62% 0.00 mm 33.48 W/m2
17:39 27.0 °C 19.0 °C 1016.3 hPa NNE 21 km/h 24 km/h 62% 0.00 mm 29.16 W/m2
17:44 27.0 °C 19.0 °C 1016.3 hPa NNE 22 km/h 28 km/h 62% 0.00 mm 24.28 W/m2
17:49 27.0 °C 19.0 °C 1016.3 hPa NNE 20 km/h 24 km/h 62% 0.00 mm 19.15 W/m2
17:54 27.0 °C 19.0 °C 1016.3 hPa NNE 19 km/h 24 km/h 62% 0.00 mm 12.70 W/m2
17:59 27.0 °C 19.0 °C 1015.2 hPa NNE 24 km/h 28 km/h 62% 0.00 mm 7.10 W/m2
18:04 27.0 °C 19.0 °C 1015.2 hPa NNE 14 km/h 16 km/h 63% 0.00 mm 3.25 W/m2
18:09 27.0 °C 19.0 °C 1016.6 hPa NNE 19 km/h 24 km/h 63% 0.00 mm 0.18 W/m2
18:14 27.0 °C 19.0 °C 1016.6 hPa NNE 15 km/h 16 km/h 63% 0.00 mm 0.00 W/m2
18:19 26.0 °C 19.0 °C 1015.2 hPa NNE 15 km/h 20 km/h 64% 0.00 mm 0.00 W/m2
18:24 26.0 °C 19.0 °C 1015.2 hPa North 17 km/h 20 km/h 64% 0.00 mm 0.00 W/m2
18:29 26.0 °C 19.0 °C 1015.2 hPa North 16 km/h 20 km/h 65% 0.00 mm 0.00 W/m2
18:34 26.0 °C 19.0 °C 1015.2 hPa North 12 km/h 12 km/h 65% 0.00 mm 0.00 W/m2
18:39 26.0 °C 19.0 °C 1015.6 hPa NNE 19 km/h 20 km/h 66% 0.00 mm 0.00 W/m2
18:44 26.0 °C 19.0 °C 1015.6 hPa North 15 km/h 20 km/h 66% 0.00 mm 0.00 W/m2
18:49 26.0 °C 19.0 °C 1015.6 hPa North 11 km/h 12 km/h 67% 0.00 mm 0.00 W/m2
18:54 26.0 °C 19.0 °C 1015.6 hPa North 10 km/h 12 km/h 67% 0.00 mm 0.00 W/m2
18:59 26.0 °C 19.0 °C 1015.6 hPa NNE 12 km/h 16 km/h 67% 0.00 mm 0.00 W/m2
19:04 26.0 °C 19.0 °C 1015.6 hPa NNE 17 km/h 20 km/h 67% 0.00 mm 0.00 W/m2
19:09 26.0 °C 20.0 °C 1015.6 hPa NNE 14 km/h 16 km/h 68% 0.00 mm 0.00 W/m2
19:14 26.0 °C 20.0 °C 1015.6 hPa North 10 km/h 12 km/h 68% 0.00 mm 0.00 W/m2
19:19 26.0 °C 20.0 °C 1015.6 hPa North 10 km/h 12 km/h 68% 0.00 mm 0.00 W/m2
19:24 26.0 °C 20.0 °C 1015.9 hPa NNE 8 km/h 12 km/h 68% 0.00 mm 0.00 W/m2
19:29 26.0 °C 20.0 °C 1015.6 hPa North 8 km/h 12 km/h 68% 0.00 mm 0.00 W/m2
19:34 26.0 °C 20.0 °C 1015.9 hPa North 15 km/h 16 km/h 68% 0.00 mm 0.00 W/m2
19:39 26.0 °C 20.0 °C 1015.9 hPa NNE 17 km/h 20 km/h 68% 0.00 mm 0.00 W/m2
19:44 26.0 °C 20.0 °C 1015.9 hPa NNE 13 km/h 16 km/h 68% 0.00 mm 0.00 W/m2
19:49 26.0 °C 20.0 °C 1015.9 hPa NNE 15 km/h 20 km/h 69% 0.00 mm 0.00 W/m2
19:54 26.0 °C 20.0 °C 1015.9 hPa NNE 14 km/h 16 km/h 68% 0.00 mm 0.00 W/m2
19:59 26.0 °C 20.0 °C 1015.9 hPa North 18 km/h 24 km/h 68% 0.00 mm 0.00 W/m2
20:04 26.0 °C 20.0 °C 1016.3 hPa North 14 km/h 16 km/h 68% 0.00 mm 0.00 W/m2
20:09 26.0 °C 20.0 °C 1016.3 hPa NNE 14 km/h 16 km/h 68% 0.00 mm 0.00 W/m2
20:14 26.0 °C 20.0 °C 1016.3 hPa North 13 km/h 20 km/h 68% 0.00 mm 0.00 W/m2
20:19 26.0 °C 20.0 °C 1016.3 hPa North 10 km/h 12 km/h 68% 0.00 mm 0.00 W/m2
20:24 26.0 °C 20.0 °C 1016.6 hPa NNE 12 km/h 16 km/h 68% 0.00 mm 0.00 W/m2
20:29 26.0 °C 20.0 °C 1016.6 hPa NNE 11 km/h 16 km/h 68% 0.00 mm 0.00 W/m2
20:34 26.0 °C 20.0 °C 1016.6 hPa North 15 km/h 16 km/h 68% 0.00 mm 0.00 W/m2
20:39 26.0 °C 20.0 °C 1016.6 hPa NNE 13 km/h 16 km/h 68% 0.00 mm 0.00 W/m2
20:44 26.0 °C 20.0 °C 1016.6 hPa North 15 km/h 16 km/h 68% 0.00 mm 0.00 W/m2
20:49 26.0 °C 20.0 °C 1016.6 hPa NNE 11 km/h 12 km/h 68% 0.00 mm 0.00 W/m2
20:54 26.0 °C 20.0 °C 1016.6 hPa NNE 12 km/h 16 km/h 68% 0.00 mm 0.00 W/m2
20:59 26.0 °C 20.0 °C 1016.6 hPa North 8 km/h 8 km/h 69% 0.00 mm 0.00 W/m2
21:04 26.0 °C 20.0 °C 1016.6 hPa NNE 12 km/h 16 km/h 69% 0.00 mm 0.00 W/m2
21:09 26.0 °C 20.0 °C 1016.6 hPa NNE 9 km/h 12 km/h 69% 0.00 mm 0.00 W/m2
21:14 26.0 °C 20.0 °C 1016.6 hPa North 9 km/h 12 km/h 69% 0.00 mm 0.00 W/m2
21:19 26.0 °C 20.0 °C 1016.6 hPa NNE 8 km/h 8 km/h 69% 0.00 mm 0.00 W/m2
21:24 26.0 °C 20.0 °C 1016.6 hPa NNE 17 km/h 20 km/h 69% 0.00 mm 0.00 W/m2
21:29 26.0 °C 20.0 °C 1016.6 hPa NNE 18 km/h 20 km/h 69% 0.00 mm 0.00 W/m2
21:34 26.0 °C 20.0 °C 1016.9 hPa North 17 km/h 20 km/h 69% 0.00 mm 0.00 W/m2
21:39 26.0 °C 20.0 °C 1016.6 hPa NNE 15 km/h 20 km/h 69% 0.00 mm 0.00 W/m2
21:44 26.0 °C 20.0 °C 1016.9 hPa North 14 km/h 16 km/h 69% 0.00 mm 0.00 W/m2
21:49 26.0 °C 20.0 °C 1016.6 hPa North 10 km/h 12 km/h 69% 0.00 mm 0.00 W/m2
21:54 26.0 °C 20.0 °C 1016.9 hPa NNE 10 km/h 12 km/h 69% 0.00 mm 0.00 W/m2
21:59 26.0 °C 20.0 °C 1016.9 hPa NNE 8 km/h 12 km/h 69% 0.00 mm 0.00 W/m2
22:04 26.0 °C 20.0 °C 1016.9 hPa NNE 14 km/h 16 km/h 69% 0.00 mm 0.00 W/m2
22:09 26.0 °C 20.0 °C 1016.9 hPa NNE 10 km/h 12 km/h 69% 0.00 mm 0.00 W/m2
22:14 26.0 °C 20.0 °C 1016.9 hPa North 9 km/h 12 km/h 69% 0.00 mm 0.00 W/m2
22:19 26.0 °C 20.0 °C 1016.9 hPa NNE 12 km/h 12 km/h 69% 0.00 mm 0.00 W/m2
22:24 26.0 °C 20.0 °C 1017.3 hPa NNE 11 km/h 12 km/h 69% 0.00 mm 0.00 W/m2
22:29 26.0 °C 20.0 °C 1016.9 hPa NNE 16 km/h 20 km/h 69% 0.00 mm 0.00 W/m2
22:34 26.0 °C 20.0 °C 1017.3 hPa NNE 15 km/h 16 km/h 69% 0.00 mm 0.00 W/m2
22:39 26.0 °C 20.0 °C 1017.3 hPa North 10 km/h 12 km/h 69% 0.00 mm 0.00 W/m2
22:44 26.0 °C 20.0 °C 1017.3 hPa North 9 km/h 12 km/h 69% 0.00 mm 0.00 W/m2
22:49 26.0 °C 19.0 °C 1017.3 hPa NE 5 km/h 8 km/h 68% 0.00 mm 0.00 W/m2
22:54 26.0 °C 19.0 °C 1016.9 hPa NNE 6 km/h 8 km/h 68% 0.00 mm 0.00 W/m2
22:59 26.0 °C 19.0 °C 1017.3 hPa NNE 11 km/h 12 km/h 68% 0.00 mm 0.00 W/m2
23:04 26.0 °C 19.0 °C 1016.9 hPa North 12 km/h 16 km/h 68% 0.00 mm 0.00 W/m2
23:09 26.0 °C 19.0 °C 1016.9 hPa NNE 7 km/h 8 km/h 68% 0.00 mm 0.00 W/m2
23:14 26.0 °C 19.0 °C 1017.3 hPa North 14 km/h 16 km/h 68% 0.00 mm 0.00 W/m2
23:19 26.0 °C 19.0 °C 1017.3 hPa NE 7 km/h 8 km/h 67% 0.00 mm 0.00 W/m2
23:24 26.0 °C 19.0 °C 1016.9 hPa North 10 km/h 12 km/h 67% 0.00 mm 0.00 W/m2
23:29 26.0 °C 19.0 °C 1016.9 hPa North 6 km/h 8 km/h 67% 0.00 mm 0.00 W/m2
23:34 25.0 °C 19.0 °C 1017.3 hPa NNE 10 km/h 12 km/h 67% 0.00 mm 0.00 W/m2
23:39 25.0 °C 19.0 °C 1016.9 hPa North 13 km/h 16 km/h 67% 0.00 mm 0.00 W/m2
23:44 25.0 °C 19.0 °C 1016.9 hPa North 9 km/h 12 km/h 67% 0.00 mm 0.00 W/m2
23:49 25.0 °C 19.0 °C 1016.9 hPa NNE 8 km/h 12 km/h 67% 0.00 mm 0.00 W/m2
23:54 25.0 °C 19.0 °C 1016.9 hPa North 8 km/h 8 km/h 67% 0.00 mm 0.00 W/m2
23:59 25.0 °C 19.0 °C 1016.6 hPa North 10 km/h 12 km/h 67% 0.00 mm 0.00 W/m2
PIMOHWEATHER Philippines
Compliments of Weather Underground - 2 mb